モンターニ彗星

314P/Montani (1997)

English version
Home page
Updated on November 1, 2014

---------------------------------------------------------------------

・ プロフィール

符号 314P/1997 G1
発見日 1997年4月9日
発見光度 19.1等
発見者 Joe Montani

・ 軌道要素

Epoch 1997 Apr. 22.0 TT = JDT 2450560.5
T 1997 Apr. 6.79346 TT                                  MPC
q   4.2142911            (2000.0)            P               Q
n   0.05077854     Peri.  213.49727     -0.51925602     -0.85178570
a   7.2224171      Node   267.87474     +0.79857988     -0.45462360
e   0.4164985      Incl.    3.98970     +0.30437371     -0.26034305
P  19.4
From 84 observations 1997 Apr. 9-2014 Oct. 25, mean residual 0".6.

・ 星図

・ 1996年10月 4日〜1998年 6月16日

・ 光度変化

        m1 = 9.7 + 5 logΔ + 10.0 log r

---------------------------------------------------------------------

軌道要素はM.P.E.C. 2014-U63に掲載されたものです。
星図は StellaNavigator Ver.2.0 for Windows (アストロアーツ 編著 / アスキー出版局刊) で作成したものです。
光度グラフはComet for Windowsで作成したものです。

---------------------------------------------------------------------

Copyright(C) Seiichi Yoshida (comet@aerith.net). All rights reserved.